User: anonymous   Login
Location: �perlecques
(50.8057°N, 2.1521°E)
Time: 11:11:49
(UTC+00:00)
Language:

Vanguard 2 - Orbit

View from above orbital plane
View from above orbital plane
View from above satellite
View from above satellite

Ground track
Ground track

The orbit data is extracted from the following two-line orbital elements,

1    11U 59001A   21214.01312081 -.00000084  00000-0 -39688-4 0  9995
2    11  32.8685 313.8121 1468081  49.4348 322.5084 11.85801061665478
Epoch (UTC): 02 August 2021 00:18:53
Eccentricity: 0.1468081
inclination: 32.8685°
perigee height: 552 km
apogee height: 2937 km
right ascension of ascending node: 313.8121°
argument of perigee: 49.4348°
revolutions per day: 11.85801061
mean anomaly at epoch: 322.5084°
orbit number at epoch: 66547

The dashed part of the orbit path shows where the satellite is in the earth's shadow,  

DLR